Location: Clinton NY
(43.0598°N, 75.3602°W)
Time: 01:53:47
(UTC-04:00)

Daily predictions for brighter satellites

Satellite Brightness Start Highest point End
(mag) Time Altitude Azimuth Time Altitude Azimuth Time Altitude Azimuth
Cosmos 1953 4.1 00:03:13 10° NW 00:06:20 22° W 00:06:37 22° W
Cosmos 1340 3.1 00:08:08 60° NNW 00:08:08 60° NNW 00:11:21 10° N
COSMOS 2406 3.7 00:09:27 32° SW 00:11:58 58° WNW 00:17:38 10° NNE
Cosmos 405 Rocket 4.4 00:13:34 24° ENE 00:13:34 24° ENE 00:15:45 10° NNE
Cosmos 2208 Rocket 4.5 00:07:59 10° NNW 00:12:54 45° WSW 00:13:24 43° WSW
Helios 1A Rocket 4.4 00:10:20 10° NE 00:12:59 27° ENE 00:12:59 27° ENE
CZ-4B R/B 2.5 00:17:28 45° NNE 00:17:28 45° NNE 00:20:21 10° N
S3M 4.2 00:11:03 10° N 00:17:13 57° E 00:18:39 46° SE
USA 238 DEB 4.1 00:13:44 18° SW 00:19:09 65° NW 00:26:12 10° NNE
USA 238 4.1 00:13:55 19° SW 00:19:15 65° NW 00:26:18 10° NNE
CZ-4C R/B 4.4 00:23:51 34° NNW 00:23:51 34° NNW 00:25:49 10° NNW
Terra 4.0 00:22:47 13° WSW 00:23:53 14° W 00:26:24 10° WNW
Cosmos 1655 Rocket 3.9 00:22:30 56° S 00:23:59 88° E 00:30:17 10° N
CZ-4C R/B 2.2 00:26:52 60° SE 00:26:57 60° ESE 00:32:47 10° NE
Lacrosse 5 4.0 00:24:46 10° NNW 00:28:54 25° NNE 00:33:03 10° ENE
Cosmos 1428 Rocket 4.5 00:30:12 56° SE 00:31:18 66° E 00:37:27 10° NNE
Cosmos 2082 Rocket 3.5 00:32:38 26° E 00:32:38 26° E 00:37:02 10° NE
Cosmos 1867 4.5 00:33:15 35° E 00:33:15 35° E 00:37:34 10° NE
Cosmos 1766 Rocket 3.7 00:34:24 72° NE 00:34:24 72° NE 00:38:35 10° N
Cosmos 1707 3.7 00:35:25 43° WNW 00:35:25 43° WNW 00:38:49 10° N
H-2A R/B 2.8 00:36:12 10° N 00:39:24 56° NNW 00:39:24 56° NNW
Landsat 5 3.7 00:40:51 61° NNW 00:40:51 61° NNW 00:44:13 10° NNW
Cosmos 1833 Rocket 4.1 00:41:56 24° E 00:41:56 24° E 00:46:13 10° NE
Cosmos 1328 Rocket 4.1 00:39:22 10° N 00:43:27 50° ENE 00:43:27 50° ENE
NOSS 3-3 (A) 4.4 00:37:05 10° NW 00:44:33 89° SW 00:47:25 44° SSE
NOSS 3-3 (C) 4.4 00:37:13 10° NW 00:44:41 90° S 00:47:34 44° SE
Cosmos 2221 3.2 00:41:07 10° NNW 00:44:51 44° WNW 00:44:51 44° WNW
Cosmos 1076 Rocket 3.7 00:46:11 65° NW 00:46:11 65° NW 00:50:02 10° N
Cosmos 1943 Rocket 4.0 00:42:32 10° WNW 00:45:51 16° W 00:46:20 16° WSW
Meteor 1-24 Rocket 3.9 00:48:55 56° SW 00:50:09 72° W 00:56:06 10° N
CENTAUR R/B 4.0 00:50:30 20° ESE 00:50:33 20° ESE 00:55:06 10° ENE
CZ-2C R/B 4.5 00:49:12 26° ESE 00:51:09 34° ENE 00:56:12 10° N
Cosmos 2026 Rocket 4.3 00:49:48 44° SW 00:51:20 55° WNW 00:57:17 10° N
Cosmos 841 Rocket 4.1 00:47:15 10° N 00:52:21 49° ENE 00:53:26 42° E
NOSS 3-2 (C) 3.4 00:51:59 59° SSW 00:53:18 83° ESE 01:00:01 10° NE
Cosmos 1689 Rocket 4.4 00:57:02 24° NW 00:57:02 24° NW 00:58:35 10° NNW
Cosmos 1515 Rocket 4.0 00:51:31 10° N 00:55:46 53° ENE 00:55:46 53° ENE
Cosmos 2228 Rocket 3.2 00:54:15 10° N 00:58:16 72° NNW 00:58:16 72° NNW
Cosmos 1656 4.4 00:59:22 10° NNW 01:04:55 49° ENE 01:06:51 35° ESE
Cosmos 1674 4.4 01:06:25 25° ENE 01:06:25 25° ENE 01:08:46 10° NNE
Cosmos 1378 4.2 01:10:18 41° NW 01:10:18 41° NW 01:13:13 10° N
Cosmos 468 Rocket 4.4 01:08:23 10° NNW 01:13:20 47° W 01:13:20 47° W
Cosmos 1066 4.5 01:14:23 71° SSE 01:14:58 83° E 01:20:27 10° NNE
CZ-2C R/B 2.6 01:09:56 10° NNE 01:15:30 70° ESE 01:16:07 64° SE
Cosmos 1814 Rocket 4.4 01:14:44 10° NNW 01:19:44 48° WSW 01:19:44 48° WSW
Cosmos 2344 3.6 01:17:28 47° S 01:19:54 71° ESE 01:28:36 10° NE
ALOS 2 4.2 01:23:39 24° W 01:23:39 24° W 01:26:40 10° NW
ASTEX 1 4.4 01:19:03 10° NNE 01:23:37 35° E 01:24:12 34° ESE
Cosmos 883 Rocket 4.4 01:18:42 10° N 01:25:06 87° W 01:26:30 58° S
Meteor 1-21 Rocket 4.1 01:24:23 66° S 01:25:15 90° SW 01:30:59 10° N
In-Cosmos 22 4.1 01:26:40 65° SW 01:27:27 78° W 01:33:08 10° N
Cosmos 836 Rocket 4.5 01:23:52 10° NNW 01:29:06 77° ENE 01:29:48 65° SE
ISS -0.4 01:28:47 10° NW 01:31:10 18° N 01:33:33 10° NE
Cosmos 2369 3.8 01:27:20 10° NNW 01:32:49 53° WSW 01:33:02 53° WSW
Cosmos 724 4.1 01:32:42 63° SSE 01:33:26 71° ESE 01:39:17 10° NE
Meteor 2-2 Rocket 4.2 01:27:54 10° NNW 01:33:38 84° W 01:34:36 63° S
Cosmos 405 4.4 01:33:26 10° N 01:36:22 35° ENE 01:36:22 35° ENE
NOSS 3-2 (A) 4.3 01:34:41 25° WSW 01:38:04 47° NW 01:44:36 10° NNE
Genesis I 3.9 01:35:42 10° NW 01:38:43 50° NW 01:38:43 50° NW
Cosmos 1818 4.1 01:35:17 10° NW 01:39:56 42° W 01:39:56 42° W
Meteor 2-20 Rocket 4.5 01:44:18 53° SW 01:45:41 70° W 01:51:52 10° N
Cosmos 2058 3.6 01:50:54 45° E 01:50:54 45° E 01:54:52 10° NNE
Lacrosse 5 rocket 3.7 01:49:09 10° NNW 01:52:48 26° NNE 01:56:32 10° E
Cosmos 1151 Rocket 3.2 01:49:29 10° NNW 01:53:18 58° WNW 01:53:18 58° WNW
Cosmos 2315 Rocket 4.0 01:48:18 10° NNW 01:54:36 73° W 01:56:09 52° SSW
Cosmos 1763 Rocket 4.0 01:49:42 10° NNW 01:54:40 43° W 01:54:40 43° W
Cosmos 1908 4.0 01:51:07 10° NNW 01:54:03 44° NW 01:54:03 44° NW
Cosmos 1980 Rocket 2.6 01:50:37 10° NNW 01:56:12 60° ENE 01:58:50 31° SE
Cosmos 2151 2.9 01:57:57 83° NW 01:57:57 83° NW 02:02:06 10° N
Cosmos 540 Rocket 3.6 01:53:47 10° NNW 01:58:58 70° ENE 02:00:22 47° SE
USA 215 3.7 01:58:25 10° ENE 02:04:34 42° SE 02:05:58 38° SSE
Cosmos 1745 Rocket 4.4 02:04:06 36° SSE 02:06:29 55° E 02:12:40 10° NNE
ERS-2 3.7 02:04:54 10° NE 02:08:05 26° E 02:08:05 26° E
Cosmos 1437 Rocket 3.5 02:05:51 10° NNW 02:08:56 43° WNW 02:08:56 43° WNW
Cosmos 1300 3.0 02:06:02 10° N 02:09:48 61° ENE 02:09:48 61° ENE
Lacrosse 5 1.8 02:07:25 10° NW 02:12:31 83° NE 02:14:59 31° SE
Nadezhda 1 Rocket 4.4 02:06:28 10° N 02:12:31 55° ENE 02:15:38 28° SE
Cosmos 1441 Rocket 4.1 02:13:08 41° WNW 02:13:08 41° WNW 02:16:39 10° N
CZ-4C R/B 3.9 02:12:00 14° W 02:15:54 29° NW 02:21:15 10° NNE
Cosmos 2082 Rocket 2.8 02:14:28 36° WSW 02:16:13 48° WNW 02:21:43 10° NNE
Cosmos 1697 Rocket 2.7 02:11:08 10° NNW 02:16:44 60° WSW 02:17:38 53° SSW
Sich 1 3.3 02:16:31 54° SE 02:17:04 59° E 02:21:27 10° NNE
Cosmos 1833 Rocket 3.1 02:23:37 38° WSW 02:25:23 52° WNW 02:30:54 10° NNE
USA 32 4.3 02:21:33 10° NNW 02:26:38 51° W 02:27:30 46° WSW
Cosmos 1437 3.2 02:29:10 61° N 02:29:10 61° N 02:32:00 10° N
CZ-2C R/B 3.9 02:30:16 35° WSW 02:30:54 36° W 02:36:07 10° NNW
Cosmos 371 Rocket 3.6 02:26:37 10° NNW 02:31:28 65° ENE 02:33:43 31° SE
BREEZE-M DEB (TANK) 4.0 02:26:03 10° WNW 02:33:12 38° N 02:35:59 10° ENE
ATLAS 5 CENTAUR R/B 3.9 02:32:26 14° SE 02:33:59 16° ESE 02:37:00 10° ENE
BREEZE-M TANK 2.7 02:25:46 10° WSW 02:34:26 89° SSE 02:37:19 10° ENE
PSLV R/B 3.6 02:30:40 10° N 02:35:18 79° WNW 02:36:05 59° SW
Abrixas 3.7 02:36:45 40° NNW 02:36:47 40° NNW 02:39:44 10° ENE
Cosmos 1455 3.9 02:33:45 10° NNE 02:37:06 29° ENE 02:38:55 19° ESE
Cosmos 1726 2.0 02:36:05 10° NNW 02:39:40 75° WNW 02:39:40 75° WNW
CENTAUR R/B 2.6 02:37:39 38° SW 02:40:16 76° NW 02:47:14 10° NE
Cosmos 968 Rocket 3.5 02:39:19 44° S 02:40:49 68° ESE 02:45:56 10° NNE
Cosmos 2360 4.1 02:35:35 10° NNW 02:41:19 86° WSW 02:44:22 29° SSE
Landsat 4 4.1 02:43:40 47° W 02:43:40 47° W 02:46:57 10° NNW
JB-3 4.2 02:44:16 10° N 02:48:15 71° WNW 02:48:45 62° SW
Aureole 1 Rocket 4.2 02:45:05 10° NW 02:49:26 36° WSW 02:49:58 35° WSW
Meteor 1-27 4.5 02:44:49 10° NNW 02:50:31 55° W 02:52:25 39° SSW
IRS-P3 4.1 02:47:30 10° NNE 02:52:53 88° WNW 02:54:57 39° SSW
Resurs 1-4 Rocket 4.2 02:49:25 10° NE 02:53:17 20° E 02:57:07 10° SE
AQUA 3.9 02:51:26 10° NNE 02:56:13 70° ESE 02:58:01 37° S
SL-16 R/B 2.4 02:52:12 10° NNW 02:57:54 71° ENE 03:03:33 10° SSE
SL-14 R/B 3.7 02:59:09 43° W 02:59:27 44° WNW 03:03:10 10° N
Cosmos 1538 Rocket 3.9 02:55:41 10° NNW 03:00:53 68° WSW 03:03:11 33° S
Cosmos 1626 2.9 02:59:56 34° SE 03:01:05 47° E 03:04:44 10° NNE
Cosmos 1869 4.1 02:58:14 10° N 03:02:07 49° E 03:04:20 23° SE
Cosmos 923 Rocket 4.5 02:59:18 10° NNW 03:04:32 61° ENE 03:09:42 10° SSE
Cosmos 2242 Rocket 3.9 03:01:05 10° NNW 03:05:18 45° W 03:06:03 41° WSW
ISS -1.9 03:05:09 10° NW 03:08:15 39° NNE 03:11:20 10° E
Cosmos 2322 Rocket 2.1 03:04:37 10° NNW 03:10:17 87° WSW 03:15:23 13° SSE
Cosmos 2181 Rocket 4.2 03:05:25 10° N 03:11:35 72° E 03:17:05 14° SSE
Cosmos 1703 3.4 03:11:01 46° SW 03:11:52 57° W 03:15:47 10° N
OAO 3 Rocket 4.0 03:13:19 30° S 03:13:19 30° S 03:17:13 10° ESE
Cosmos 1680 Rocket 4.1 03:08:44 10° NNW 03:13:53 57° ENE 03:18:59 10° SE
Cosmos 1633 Rocket 4.0 03:13:20 30° WSW 03:14:23 34° WNW 03:18:28 10° N
Cosmos 1777 Rocket 4.0 03:14:31 32° SSW 03:17:03 87° ESE 03:22:23 10° NNE
ATLAS CENTAUR R/B 4.4 03:16:22 10° N 03:20:01 21° NE 03:23:29 10° E
Cosmos 1271 Rocket 2.6 03:17:29 10° NNW 03:21:15 62° W 03:22:17 42° SSW
Cosmos 773 Rocket 3.8 03:16:40 10° NNW 03:21:49 78° WSW 03:25:50 17° SSE
CBERS-1 4.1 03:18:12 10° N 03:23:17 67° WNW 03:25:50 30° SSW
EO 1 Del DPAF 3.9 03:23:34 12° SSE 03:27:06 55° ENE 03:30:57 10° N
SL-08 R/B 3.8 03:27:42 30° SW 03:29:31 42° W 03:34:12 10° NNW
Cosmos 1703 Rocket 4.2 03:25:22 10° N 03:29:40 54° E 03:33:54 10° SSE
Cosmos 2292 Rocket 2.8 03:29:25 39° S 03:30:28 77° E 03:34:02 10° N
Cosmos 1933 4.0 03:26:54 10° N 03:30:53 54° E 03:34:38 11° SSE
ARIANE 5 R/B 2.9 03:26:38 10° NNE 03:31:42 60° E 03:35:28 17° S
Lacrosse 5 rocket 1.4 03:28:03 10° NW 03:32:26 70° SW 03:36:57 10° SE
IRS-1D 4.1 03:28:21 10° NNE 03:33:38 56° E 03:37:56 15° S
Cosmos 1470 Rocket 4.1 03:31:57 30° SW 03:33:39 43° WNW 03:37:54 10° N
ADEOS 3.6 03:30:16 10° N 03:35:30 74° WNW 03:38:40 24° SSW
Cosmos 1933 Rocket 4.2 03:36:33 28° SW 03:38:16 40° WNW 03:42:26 10° N
Cosmos 1980 Rocket 3.5 03:35:41 10° NW 03:39:41 20° W 03:40:33 19° WSW
CZ-2D R/B 2.8 03:35:17 10° NNE 03:40:24 50° E 03:45:19 11° S
Cosmos 2360 Rocket 2.7 03:35:23 10° NNW 03:40:59 62° ENE 03:46:33 10° SE
ERS-2 3.8 03:38:51 10° NNW 03:41:45 22° WNW 03:42:57 19° W
Cosmos 2074 Rocket 4.4 03:37:58 10° S 03:44:03 63° E 03:50:13 10° NNE
SL-16 R/B 2.6 03:40:18 10° SSE 03:46:34 84° ENE 03:52:52 10° NNW
USA 215 3.6 03:41:18 10° NE 03:47:44 62° NNW 03:53:19 14° WSW
Cosmos 2184 Rocket 4.4 03:42:41 10° S 03:48:59 66° E 03:55:17 10° NNE
USA 161 2.4 03:54:45 24° W 03:54:45 24° W 03:56:25 10° NW
Lacrosse 5 3.4 03:51:38 10° W 03:54:01 16° WSW 03:54:01 16° WSW
Cosmos 2322 3.8 03:50:26 10° NNW 03:56:12 80° ENE 04:01:56 10° SSE
Cosmos 2219 4.2 03:51:02 10° S 03:56:24 43° ESE 04:01:48 10° NE
Okean 1-7 3.4 03:53:03 10° N 03:57:27 68° E 04:01:47 10° SSE
Meteor 1-4 Rocket 4.0 03:54:45 10° NW 03:57:43 22° W 03:58:38 20° WSW
CRYOSAT 2 4.3 04:01:04 10° N 04:05:58 81° W 04:10:45 10° S
Cosmos 2112 Rocket 4.1 04:03:14 10° NNW 04:08:19 56° WSW 04:13:23 10° S
Okean O Rocket 2.7 04:05:02 10° NNE 04:09:15 42° E 04:13:26 10° S
Cosmos 1455 3.8 04:09:58 10° NW 04:12:37 18° W 04:13:56 15° WSW
Cosmos 1346 4.2 04:16:14 18° SW 04:17:52 30° WNW 04:20:38 10° N
ATLAS 5 CENTAUR R/B 2.0 04:13:59 16° SW 04:17:56 70° NW 04:23:14 10° NNE
H-2A R/B 4.0 04:14:58 13° WSW 04:20:27 44° S 04:54:25 10° ESE
Cosmos 304 Rocket 4.4 04:21:26 10° NW 04:25:50 36° WSW 04:30:12 10° SSW
COSMOS 2428 3.1 04:20:51 10° NNW 04:26:33 71° ENE 04:32:12 10° SSE
Cosmos 1833 4.4 04:22:23 13° SW 04:27:34 62° WNW 04:33:17 10° NNE
Cosmos 2221 Rocket 4.4 04:25:59 10° NNW 04:30:03 34° W 04:34:08 10° SSW
CENTAUR R/B 4.4 04:27:08 10° WNW 04:32:13 23° NNW 04:37:47 10° NNE
Resurs 1-4 Rocket 2.4 04:28:16 10° N 04:33:27 55° WNW 04:38:37 10° SSW
Cosmos 1892 3.6 04:30:54 10° S 04:34:39 50° E 04:38:26 10° NNE
UNKNOWN OBJECT B 3.0 04:32:55 10° N 04:36:38 54° WNW 04:40:25 10° SSW
Cosmos 1626 4.4 04:35:22 10° W 04:36:49 12° WNW 04:38:17 10° NW
Cosmos 1869 Rocket 4.4 04:35:04 10° SW 04:39:02 35° WNW 04:43:07 10° N
SL-16 R/B 3.7 04:37:51 10° WNW 04:41:20 17° W 04:44:49 10° SW
Cosmos 2298 Rocket 4.2 04:36:12 10° SSW 04:41:30 65° WNW 04:46:49 10° NNE
Cosmos 292 Rocket 3.8 04:39:20 10° NNW 04:44:10 87° ENE 04:48:57 10° SSE
ISS -2.5 04:41:43 10° WNW 04:44:38 30° SW 04:47:32 10° SSE
Cosmos 2237 Rocket 4.1 04:41:13 10° N 04:46:27 36° ENE 04:51:39 10° ESE
Cosmos 2237 4.2 04:43:15 10° NNW 04:48:59 76° WSW 04:54:41 10° SSE
CZ-2C R/B 3.8 04:45:19 10° S 04:49:42 54° W 04:54:12 10° NNW
SME Rocket 4.0 04:44:22 10° S 04:50:59 52° WSW 04:55:32 10° NNW
Meteor 2-3 Rocket 3.9 04:46:55 10° SSW 04:52:40 66° WNW 04:58:28 10° N
Cosmos 2322 Rocket 4.0 04:51:35 10° WNW 04:53:23 12° W 04:55:12 10° WSW
USA 229 DEB 3.8 04:46:51 10° SW 04:53:48 84° NW 05:00:51 10° NE
USA 229 3.8 04:46:57 10° SW 04:53:54 85° NW 05:00:58 10° NE
OAO 3 Rocket 4.3 04:52:09 10° WSW 04:56:01 26° SSW 04:59:55 10° SE
